Time,TemperatureF,DewpointF,PressureIn,WindDirection,WindDirectionDegrees,WindSpeedMPH,WindSpeedGustMPH,Humidity,HourlyPrecipIn,Conditions,Clouds,dailyrainin,SoftwareType,DateUTC
2013-06-22 00:00:00,79.3,18.0,29.67,West,272,0.0,4.0,10,0.00,,,0.00,Wunderground v.1.15,2013-06-22 06:00:00,
2013-06-22 00:10:00,79.1,17.8,29.68,West,272,0.0,0.0,10,0.00,,,0.00,Wunderground v.1.15,2013-06-22 06:10:00,
2013-06-22 00:20:00,79.8,15.9,29.68,West,272,1.0,1.0,9,0.00,,,0.00,Wunderground v.1.15,2013-06-22 06:20:00,
2013-06-22 00:30:00,79.7,18.3,29.68,West,272,0.0,0.0,10,0.00,,,0.00,Wunderground v.1.15,2013-06-22 06:30:00,
2013-06-22 00:40:00,77.8,21.1,29.68,West,272,0.0,0.0,12,0.00,,,0.00,Wunderground v.1.15,2013-06-22 06:40:00,
2013-06-22 00:50:00,75.7,21.3,29.68,West,272,0.0,0.0,13,0.00,,,0.00,Wunderground v.1.15,2013-06-22 06:50:00,
2013-06-22 01:00:00,74.1,21.8,29.68,West,272,0.0,0.0,14,0.00,,,0.00,Wunderground v.1.15,2013-06-22 07:00:00,
2013-06-22 01:10:00,72.7,23.9,29.68,West,272,0.0,3.0,16,0.00,,,0.00,Wunderground v.1.15,2013-06-22 07:10:00,
2013-06-22 01:20:00,72.1,23.4,29.67,West,272,0.0,3.0,16,0.00,,,0.00,Wunderground v.1.15,2013-06-22 07:20:00,
2013-06-22 01:30:00,71.9,21.7,29.68,West,272,0.0,3.0,15,0.00,,,0.00,Wunderground v.1.15,2013-06-22 07:30:00,
2013-06-22 01:40:00,71.5,21.4,29.68,West,272,0.0,3.0,15,0.00,,,0.00,Wunderground v.1.15,2013-06-22 07:40:00,
2013-06-22 01:50:00,71.3,21.2,29.68,West,272,0.0,3.0,15,0.00,,,0.00,Wunderground v.1.15,2013-06-22 07:50:00,
2013-06-22 02:00:00,71.9,18.3,29.68,West,272,1.0,3.0,13,0.00,,,0.00,Wunderground v.1.15,2013-06-22 08:00:00,
2013-06-22 02:10:00,72.2,16.7,29.68,West,272,1.0,1.0,12,0.00,,,0.00,Wunderground v.1.15,2013-06-22 08:10:00,
2013-06-22 02:20:00,71.9,18.3,29.68,West,272,0.0,3.0,13,0.00,,,0.00,Wunderground v.1.15,2013-06-22 08:20:00,
2013-06-22 02:30:00,71.3,17.9,29.68,West,272,0.0,3.0,13,0.00,,,0.00,Wunderground v.1.15,2013-06-22 08:30:00,
2013-06-22 02:40:00,71.1,17.7,29.68,West,272,1.0,1.0,13,0.00,,,0.00,Wunderground v.1.15,2013-06-22 08:40:00,
2013-06-22 02:50:00,71.1,17.7,29.68,West,272,0.0,3.0,13,0.00,,,0.00,Wunderground v.1.15,2013-06-22 08:50:00,
2013-06-22 03:00:00,70.3,18.8,29.68,West,272,0.0,3.0,14,0.00,,,0.00,Wunderground v.1.15,2013-06-22 09:00:00,
2013-06-22 03:10:00,69.4,18.1,29.68,West,272,0.0,3.0,14,0.00,,,0.00,Wunderground v.1.15,2013-06-22 09:10:00,
2013-06-22 03:20:00,68.3,21.8,29.68,West,272,0.0,3.0,17,0.00,,,0.00,Wunderground v.1.15,2013-06-22 09:20:00,
2013-06-22 03:30:00,67.4,22.4,29.68,West,272,0.0,3.0,18,0.00,,,0.00,Wunderground v.1.15,2013-06-22 09:30:00,
2013-06-22 03:40:00,66.6,23.0,29.69,West,272,0.0,3.0,19,0.00,,,0.00,Wunderground v.1.15,2013-06-22 09:40:00,
2013-06-22 03:50:00,65.7,23.5,29.69,West,272,0.0,3.0,20,0.00,,,0.00,Wunderground v.1.15,2013-06-22 09:50:00,
2013-06-22 04:00:00,64.9,22.8,29.69,West,272,0.0,3.0,20,0.00,,,0.00,Wunderground v.1.15,2013-06-22 10:00:00,
2013-06-22 04:10:00,64.6,23.7,29.69,West,272,0.0,3.0,21,0.00,,,0.00,Wunderground v.1.15,2013-06-22 10:10:00,
2013-06-22 04:20:00,64.3,21.1,29.70,West,272,0.0,3.0,19,0.00,,,0.00,Wunderground v.1.15,2013-06-22 10:20:00,
2013-06-22 04:30:00,64.5,23.7,29.70,West,272,0.0,3.0,21,0.00,,,0.00,Wunderground v.1.15,2013-06-22 10:30:00,
2013-06-22 04:40:00,64.1,23.3,29.70,West,272,0.0,3.0,21,0.00,,,0.00,Wunderground v.1.15,2013-06-22 10:40:00,
2013-06-22 04:50:00,63.5,23.9,29.70,West,272,0.0,3.0,22,0.00,,,0.00,Wunderground v.1.15,2013-06-22 10:50:00,
2013-06-22 05:00:00,62.8,24.4,29.70,West,272,0.0,3.0,23,0.00,,,0.00,Wunderground v.1.15,2013-06-22 11:00:00,
2013-06-22 05:10:00,63.0,21.2,29.70,West,272,0.0,3.0,20,0.00,,,0.00,Wunderground v.1.15,2013-06-22 11:10:00,
2013-06-22 05:20:00,63.1,23.6,29.71,West,272,0.0,3.0,22,0.00,,,0.00,Wunderground v.1.15,2013-06-22 11:20:00,
2013-06-22 05:30:00,63.4,23.8,29.71,West,272,0.0,3.0,22,0.00,,,0.00,Wunderground v.1.15,2013-06-22 11:30:00,
2013-06-22 05:40:00,63.4,24.9,29.72,West,272,0.0,3.0,23,0.00,,,0.00,Wunderground v.1.15,2013-06-22 11:40:00,
2013-06-22 05:50:00,62.8,25.4,29.72,West,272,0.0,3.0,24,0.00,,,0.00,Wunderground v.1.15,2013-06-22 11:50:00,
2013-06-22 06:00:00,62.3,26.0,29.72,West,272,0.0,3.0,25,0.00,,,0.00,Wunderground v.1.15,2013-06-22 12:00:00,
2013-06-22 06:10:00,61.7,26.4,29.72,West,272,0.0,3.0,26,0.00,,,0.00,Wunderground v.1.15,2013-06-22 12:10:00,
2013-06-22 06:20:00,61.2,27.8,29.73,West,272,0.0,3.0,28,0.00,,,0.00,Wunderground v.1.15,2013-06-22 12:20:00,
2013-06-22 06:30:00,60.9,27.5,29.73,West,272,0.0,3.0,28,0.00,,,0.00,Wunderground v.1.15,2013-06-22 12:30:00,
2013-06-22 06:40:00,61.6,26.3,29.73,West,272,0.0,3.0,26,0.00,,,0.00,Wunderground v.1.15,2013-06-22 12:40:00,
2013-06-22 06:50:00,63.2,26.8,29.73,West,272,0.0,3.0,25,0.00,,,0.00,Wunderground v.1.15,2013-06-22 12:50:00,
2013-06-22 07:00:00,65.6,26.8,29.74,West,272,0.0,3.0,23,0.00,,,0.00,Wunderground v.1.15,2013-06-22 13:00:00,
2013-06-22 07:10:00,68.5,27.0,29.74,West,272,0.0,3.0,21,0.00,,,0.00,Wunderground v.1.15,2013-06-22 13:10:00,
2013-06-22 07:20:00,70.1,21.8,29.74,West,272,0.0,3.0,16,0.00,,,0.00,Wunderground v.1.15,2013-06-22 13:20:00,
2013-06-22 07:30:00,70.5,20.6,29.74,West,272,1.0,3.0,15,0.00,,,0.00,Wunderground v.1.15,2013-06-22 13:30:00,
2013-06-22 07:40:00,71.2,21.1,29.75,West,272,1.0,3.0,15,0.00,,,0.00,Wunderground v.1.15,2013-06-22 13:40:00,
2013-06-22 07:50:00,71.8,21.6,29.75,West,272,1.0,1.0,15,0.00,,,0.00,Wunderground v.1.15,2013-06-22 13:50:00,
2013-06-22 08:00:00,72.8,22.4,29.75,West,272,2.0,5.0,15,0.00,,,0.00,Wunderground v.1.15,2013-06-22 14:00:00,
2013-06-22 08:10:00,73.2,21.1,29.75,West,272,2.0,2.0,14,0.00,,,0.00,Wunderground v.1.15,2013-06-22 14:10:00,
2013-06-22 08:20:00,74.3,22.0,29.75,West,272,1.0,4.0,14,0.00,,,0.00,Wunderground v.1.15,2013-06-22 14:20:00,
2013-06-22 08:30:00,75.1,20.9,29.75,SW,217,3.0,4.0,13,0.00,,,0.00,Wunderground v.1.15,2013-06-22 14:30:00,
2013-06-22 08:40:00,76.0,19.7,29.75,SSW,207,3.0,3.0,12,0.00,,,0.00,Wunderground v.1.15,2013-06-22 14:40:00,
2013-06-22 08:50:00,76.7,20.2,29.75,South,184,3.0,3.0,12,0.00,,,0.00,Wunderground v.1.15,2013-06-22 14:50:00,
2013-06-22 09:00:00,77.1,18.5,29.75,South,183,4.0,4.0,11,0.00,,,0.00,Wunderground v.1.15,2013-06-22 15:00:00,
2013-06-22 09:10:00,77.8,19.0,29.75,South,183,3.0,3.0,11,0.00,,,0.00,Wunderground v.1.15,2013-06-22 15:10:00,
2013-06-22 09:20:00,78.6,17.4,29.75,South,180,3.0,3.0,10,0.00,,,0.00,Wunderground v.1.15,2013-06-22 15:20:00,
2013-06-22 09:30:00,79.6,18.2,29.75,South,184,2.0,3.0,10,0.00,,,0.00,Wunderground v.1.15,2013-06-22 15:30:00,
2013-06-22 09:40:00,80.1,16.1,29.75,SSE,159,3.0,3.0,9,0.00,,,0.00,Wunderground v.1.15,2013-06-22 15:40:00,
2013-06-22 09:50:00,80.5,16.4,29.75,SSE,159,3.0,3.0,9,0.00,,,0.00,Wunderground v.1.15,2013-06-22 15:50:00,
2013-06-22 10:00:00,81.3,14.3,29.75,SSE,158,3.0,4.0,8,0.00,,,0.00,Wunderground v.1.15,2013-06-22 16:00:00,
2013-06-22 10:10:00,81.7,14.6,29.75,SSW,192,4.0,4.0,8,0.00,,,0.00,Wunderground v.1.15,2013-06-22 16:10:00,
2013-06-22 10:20:00,81.8,17.4,29.74,SSW,202,4.0,7.0,9,0.00,,,0.00,Wunderground v.1.15,2013-06-22 16:20:00,
2013-06-22 10:30:00,82.0,17.6,29.74,South,175,4.0,6.0,9,0.00,,,0.00,Wunderground v.1.15,2013-06-22 16:30:00,
2013-06-22 10:40:00,82.6,20.5,29.74,SSE,165,4.0,7.0,10,0.00,,,0.00,Wunderground v.1.15,2013-06-22 16:40:00,
2013-06-22 10:50:00,83.0,18.3,29.74,SSW,198,5.0,5.0,9,0.00,,,0.00,Wunderground v.1.15,2013-06-22 16:50:00,
2013-06-22 11:00:00,84.0,19.1,29.74,SSE,163,2.0,3.0,9,0.00,,,0.00,Wunderground v.1.15,2013-06-22 17:00:00,
2013-06-22 11:10:00,83.7,18.8,29.74,SSW,201,5.0,5.0,9,0.00,,,0.00,Wunderground v.1.15,2013-06-22 17:10:00,
2013-06-22 11:20:00,84.8,19.7,29.74,South,190,2.0,2.0,9,0.00,,,0.00,Wunderground v.1.15,2013-06-22 17:20:00,
2013-06-22 11:30:00,85.7,20.3,29.74,South,169,3.0,6.0,9,0.00,,,0.00,Wunderground v.1.15,2013-06-22 17:30:00,
2013-06-22 11:40:00,86.0,17.8,29.73,ESE,121,2.0,5.0,8,0.00,,,0.00,Wunderground v.1.15,2013-06-22 17:40:00,
2013-06-22 11:50:00,85.4,17.4,29.73,SSE,158,5.0,11.0,8,0.00,,,0.00,Wunderground v.1.15,2013-06-22 17:50:00,
2013-06-22 12:00:00,85.3,20.0,29.72,SE,132,6.0,10.0,9,0.00,,,0.00,Wunderground v.1.15,2013-06-22 18:00:00,
2013-06-22 12:10:00,85.8,17.7,29.72,SSE,150,5.0,5.0,8,0.00,,,0.00,Wunderground v.1.15,2013-06-22 18:10:00,
2013-06-22 12:20:00,85.7,20.3,29.71,SSW,205,6.0,6.0,9,0.00,,,0.00,Wunderground v.1.15,2013-06-22 18:20:00,
2013-06-22 12:30:00,86.0,17.8,29.70,South,171,4.0,10.0,8,0.00,,,0.00,Wunderground v.1.15,2013-06-22 18:30:00,
2013-06-22 12:40:00,86.5,18.2,29.70,SSE,154,5.0,7.0,8,0.00,,,0.00,Wunderground v.1.15,2013-06-22 18:40:00,
2013-06-22 12:50:00,87.0,18.6,29.69,South,186,6.0,11.0,8,0.00,,,0.00,Wunderground v.1.15,2013-06-22 18:50:00,
2013-06-22 13:00:00,88.8,13.2,29.69,WNW,282,5.0,5.0,6,0.00,,,0.00,Wunderground v.1.15,2013-06-22 19:00:00,
2013-06-22 13:10:00,88.8,13.2,29.68,SSE,163,4.0,4.0,6,0.00,,,0.00,Wunderground v.1.15,2013-06-22 19:10:00,
2013-06-22 13:20:00,89.9,14.0,29.68,East,101,2.0,5.0,6,0.00,,,0.00,Wunderground v.1.15,2013-06-22 19:20:00,
2013-06-22 13:30:00,90.1,14.2,29.67,WSW,238,5.0,5.0,6,0.00,,,0.00,Wunderground v.1.15,2013-06-22 19:30:00,
2013-06-22 13:40:00,91.3,10.9,29.66,WSW,246,6.0,6.0,5,0.00,,,0.00,Wunderground v.1.15,2013-06-22 19:40:00,
2013-06-22 13:50:00,91.3,15.0,29.66,WSW,255,5.0,5.0,6,0.00,,,0.00,Wunderground v.1.15,2013-06-22 19:50:00,
2013-06-22 14:00:00,90.8,10.5,29.65,West,275,4.0,4.0,5,0.00,,,0.00,Wunderground v.1.15,2013-06-22 20:00:00,
2013-06-22 14:10:00,90.7,10.5,29.65,WSW,238,6.0,6.0,5,0.00,,,0.00,Wunderground v.1.15,2013-06-22 20:10:00,
2013-06-22 14:20:00,90.8,10.5,29.65,WSW,246,7.0,7.0,5,0.00,,,0.00,Wunderground v.1.15,2013-06-22 20:20:00,
2013-06-22 14:30:00,90.7,10.5,29.64,SW,219,5.0,5.0,5,0.00,,,0.00,Wunderground v.1.15,2013-06-22 20:30:00,
2013-06-22 14:40:00,90.7,10.5,29.63,WNW,302,3.0,4.0,5,0.00,,,0.00,Wunderground v.1.15,2013-06-22 20:40:00,
2013-06-22 14:50:00,91.9,6.3,29.63,WSW,249,7.0,16.0,4,0.00,,,0.00,Wunderground v.1.15,2013-06-22 20:50:00,
2013-06-22 15:00:00,91.3,5.9,29.63,SW,217,6.0,6.0,4,0.00,,,0.00,Wunderground v.1.15,2013-06-22 21:00:00,
2013-06-22 15:10:00,92.2,6.5,29.61,WNW,303,5.0,5.0,4,0.00,,,0.00,Wunderground v.1.15,2013-06-22 21:10:00,
2013-06-22 15:20:00,92.9,7.0,29.61,WSW,237,6.0,6.0,4,0.00,,,0.00,Wunderground v.1.15,2013-06-22 21:20:00,
2013-06-22 15:30:00,94.1,1.6,29.60,WSW,237,5.0,5.0,3,0.00,,,0.00,Wunderground v.1.15,2013-06-22 21:30:00,
2013-06-22 15:40:00,93.9,1.4,29.60,SW,215,7.0,7.0,3,0.00,,,0.00,Wunderground v.1.15,2013-06-22 21:40:00,
2013-06-22 15:50:00,93.5,1.2,29.60,WSW,242,10.0,10.0,3,0.00,,,0.00,Wunderground v.1.15,2013-06-22 21:50:00,
2013-06-22 16:00:00,93.5,1.2,29.59,SSW,207,8.0,13.0,3,0.00,,,0.00,Wunderground v.1.15,2013-06-22 22:00:00,
2013-06-22 16:10:00,93.7,1.3,29.59,South,175,7.0,7.0,3,0.00,,,0.00,Wunderground v.1.15,2013-06-22 22:10:00,
2013-06-22 16:20:00,93.5,1.2,29.58,SW,220,4.0,6.0,3,0.00,,,0.00,Wunderground v.1.15,2013-06-22 22:20:00,
2013-06-22 16:30:00,94.2,1.6,29.58,SW,232,9.0,9.0,3,0.00,,,0.00,Wunderground v.1.15,2013-06-22 22:30:00,
2013-06-22 16:40:00,94.1,1.6,29.58,SW,229,4.0,6.0,3,0.00,,,0.00,Wunderground v.1.15,2013-06-22 22:40:00,
2013-06-22 16:50:00,92.5,0.5,29.57,WSW,251,7.0,7.0,3,0.00,,,0.00,Wunderground v.1.15,2013-06-22 22:50:00,
2013-06-22 17:00:00,93.2,1.0,29.57,WSW,254,6.0,10.0,3,0.00,,,0.00,Wunderground v.1.15,2013-06-22 23:00:00,
2013-06-22 17:10:00,93.1,0.9,29.57,WSW,240,10.0,10.0,3,0.00,,,0.00,Wunderground v.1.15,2013-06-22 23:10:00,
2013-06-22 17:20:00,93.8,1.4,29.57,SW,236,6.0,6.0,3,0.00,,,0.00,Wunderground v.1.15,2013-06-22 23:20:00,
2013-06-22 17:30:00,94.0,1.5,29.56,SW,236,4.0,7.0,3,0.00,,,0.00,Wunderground v.1.15,2013-06-22 23:30:00,
2013-06-22 17:40:00,94.5,1.8,29.56,WSW,248,6.0,12.0,3,0.00,,,0.00,Wunderground v.1.15,2013-06-22 23:40:00,
2013-06-22 17:50:00,93.8,1.4,29.56,WSW,244,8.0,8.0,3,0.00,,,0.00,Wunderground v.1.15,2013-06-22 23:50:00,
2013-06-22 18:00:00,93.8,1.4,29.56,West,261,6.0,12.0,3,0.00,,,0.00,Wunderground v.1.15,2013-06-23 00:00:00,
2013-06-22 18:10:00,93.5,-7.3,29.55,West,259,7.0,7.0,2,0.00,,,0.00,Wunderground v.1.15,2013-06-23 00:10:00,
2013-06-22 18:20:00,93.4,1.1,29.55,WSW,244,5.0,5.0,3,0.00,,,0.00,Wunderground v.1.15,2013-06-23 00:20:00,
2013-06-22 18:30:00,93.3,1.0,29.55,SW,229,6.0,6.0,3,0.00,,,0.00,Wunderground v.1.15,2013-06-23 00:30:00,
2013-06-22 18:40:00,92.2,0.3,29.56,WSW,251,8.0,9.0,3,0.00,,,0.00,Wunderground v.1.15,2013-06-23 00:40:00,
2013-06-22 18:50:00,92.0,0.2,29.56,WSW,249,6.0,6.0,3,0.00,,,0.00,Wunderground v.1.15,2013-06-23 00:50:00,
2013-06-22 19:00:00,92.0,6.4,29.56,WSW,252,6.0,6.0,4,0.00,,,0.00,Wunderground v.1.15,2013-06-23 01:00:00,
2013-06-22 19:10:00,91.7,0.0,29.56,WSW,257,8.0,8.0,3,0.00,,,0.00,Wunderground v.1.15,2013-06-23 01:10:00,
2013-06-22 19:20:00,91.4,-0.2,29.56,WSW,253,5.0,6.0,3,0.00,,,0.00,Wunderground v.1.15,2013-06-23 01:20:00,
2013-06-22 19:30:00,90.9,-0.6,29.57,WSW,257,6.0,8.0,3,0.00,,,0.00,Wunderground v.1.15,2013-06-23 01:30:00,
2013-06-22 19:40:00,90.5,5.4,29.57,West,273,7.0,7.0,4,0.00,,,0.00,Wunderground v.1.15,2013-06-23 01:40:00,
2013-06-22 19:50:00,90.1,5.1,29.57,WSW,257,6.0,6.0,4,0.00,,,0.00,Wunderground v.1.15,2013-06-23 01:50:00,
2013-06-22 20:00:00,89.9,-1.2,29.57,WSW,252,6.0,6.0,3,0.00,,,0.00,Wunderground v.1.15,2013-06-23 02:00:00,
2013-06-22 20:10:00,89.6,4.8,29.57,WSW,255,4.0,5.0,4,0.00,,,0.00,Wunderground v.1.15,2013-06-23 02:10:00,
2013-06-22 20:20:00,89.1,4.4,29.58,WSW,245,5.0,5.0,4,0.00,,,0.00,Wunderground v.1.15,2013-06-23 02:20:00,
2013-06-22 20:30:00,88.6,4.1,29.58,WSW,252,4.0,4.0,4,0.00,,,0.00,Wunderground v.1.15,2013-06-23 02:30:00,
2013-06-22 20:40:00,88.0,3.7,29.58,WSW,246,3.0,4.0,4,0.00,,,0.00,Wunderground v.1.15,2013-06-23 02:40:00,
2013-06-22 20:50:00,87.2,8.0,29.59,WNW,284,2.0,3.0,5,0.00,,,0.00,Wunderground v.1.15,2013-06-23 02:50:00,
2013-06-22 21:00:00,86.2,7.3,29.59,WNW,284,1.0,4.0,5,0.00,,,0.00,Wunderground v.1.15,2013-06-23 03:00:00,
2013-06-22 21:10:00,85.3,6.7,29.59,WNW,284,1.0,3.0,5,0.00,,,0.00,Wunderground v.1.15,2013-06-23 03:10:00,
2013-06-22 21:20:00,84.7,10.3,29.59,WNW,284,1.0,1.0,6,0.00,,,0.00,Wunderground v.1.15,2013-06-23 03:20:00,
2013-06-22 21:30:00,83.9,9.7,29.60,WNW,284,0.0,3.0,6,0.00,,,0.00,Wunderground v.1.15,2013-06-23 03:30:00,
2013-06-22 21:40:00,83.3,9.3,29.60,WNW,284,0.0,3.0,6,0.00,,,0.00,Wunderground v.1.15,2013-06-23 03:40:00,
2013-06-22 21:50:00,82.7,8.9,29.61,WNW,284,0.0,3.0,6,0.00,,,0.00,Wunderground v.1.15,2013-06-23 03:50:00,
2013-06-22 22:00:00,82.3,8.6,29.62,WNW,284,0.0,3.0,6,0.00,,,0.00,Wunderground v.1.15,2013-06-23 04:00:00,
2013-06-22 22:10:00,81.7,14.6,29.62,WNW,284,0.0,3.0,8,0.00,,,0.00,Wunderground v.1.15,2013-06-23 04:10:00,
2013-06-22 22:20:00,80.3,13.6,29.63,WNW,284,0.0,3.0,8,0.00,,,0.00,Wunderground v.1.15,2013-06-23 04:20:00,
2013-06-22 22:30:00,79.1,15.4,29.63,WNW,284,0.0,3.0,9,0.00,,,0.00,Wunderground v.1.15,2013-06-23 04:30:00,
2013-06-22 22:40:00,78.0,17.0,29.63,WNW,284,0.0,3.0,10,0.00,,,0.00,Wunderground v.1.15,2013-06-23 04:40:00,
2013-06-22 22:50:00,77.1,18.5,29.64,WNW,284,0.0,3.0,11,0.00,,,0.00,Wunderground v.1.15,2013-06-23 04:50:00,
2013-06-22 23:00:00,76.4,18.0,29.64,WNW,284,0.0,3.0,11,0.00,,,0.00,Wunderground v.1.15,2013-06-23 05:00:00,
2013-06-22 23:10:00,75.7,19.4,29.64,WNW,284,0.0,3.0,12,0.00,,,0.00,Wunderground v.1.15,2013-06-23 05:10:00,
2013-06-22 23:20:00,74.9,22.5,29.64,WNW,284,0.0,3.0,14,0.00,,,0.00,Wunderground v.1.15,2013-06-23 05:20:00,
2013-06-22 23:30:00,74.2,21.9,29.64,WNW,284,0.0,3.0,14,0.00,,,0.00,Wunderground v.1.15,2013-06-23 05:30:00,
2013-06-22 23:40:00,73.3,22.8,29.64,WNW,284,0.0,3.0,15,0.00,,,0.00,Wunderground v.1.15,2013-06-23 05:40:00,
2013-06-22 23:50:00,72.6,23.8,29.65,WNW,284,0.0,3.0,16,0.00,,,0.00,Wunderground v.1.15,2013-06-23 05:50:00,